Flag for Zimbabwe Weather past 2 weeks in Harare, Zimbabwe

Now
66 °F

Thunderstorms. Passing clouds.


Feels Like: 66 °F
Forecast: 61 / 74 °F
Wind: 7 mph from Northeast

Location: Harare Kutsaga Airport

Current Time: Jan 28, 2015 at 10:21:11 PM

Latest Report: Jan 28, 2015 at 10:00 PM


Visibility: 6 mi

Pressure: 30.15 "Hg

Humidity: 100%

Dew point: 66 °F

Location of HarareLocation

Historic Weather in Harare — Graph

°F

Harare temperature yesterday

Maximum temperature yesterday: 81 °F (at 12:00 PM)
Minimum temperature yesterday: 64 °F (at 5:00 AM)
Average temperature yesterday: 70 °F

Past Weeks' High & Low Weather Summary

 TemperatureHumidityPressure
High84 °F (Jan 14, 3:00 PM)100% (Jan 14, 1:00 AM)30.36 "Hg (Jan 14, 1:00 AM)
Low54 °F (Jan 24, 5:00 AM)37% (Jan 24, 5:00 PM)29.92 "Hg (Jan 16, 4:00 PM)
Average70 °F75%30.12 "Hg
* Reported Jan 13 9:00 PM — Jan 28 9:00 PM, Harare, Weather by CustomWeather, © 2014

Note: Actual official high and low records may vary slightly from our data, if they occured in-between our weather recording intervals... More about our weather records

Advertising

Harare weather history for previous 24 hours

 ConditionsComfort  
Time TempWeatherWind HumidityBarometerVisibility
9:00 PM
Jan 28
66 °FPassing clouds.5 mph100%30.12 "HgN/A
8:00 PM66 °FPassing clouds.6 mph100%30.09 "HgN/A
7:00 PM66 °FPassing clouds.No wind100%30.07 "HgN/A
5:00 PM66 °FThunderstorms. Broken clouds.2 mph100%30.04 "Hg5 mi
4:00 PM66 °FThunderstorms. Partly sunny.15 mph100%30.01 "Hg4 mi
3:00 PM82 °FPartly sunny.6 mph48%30.01 "HgN/A
2:00 PM79 °FScattered clouds.9 mph54%30.01 "HgN/A
1:00 PM79 °FScattered clouds.10 mph70%30.07 "HgN/A
12:00 PM79 °FBroken clouds.10 mph58%30.09 "HgN/A
11:00 AM77 °FBroken clouds.9 mph65%30.12 "HgN/A
9:00 AM73 °FPartly sunny.9 mph74%30.12 "HgN/A
8:00 AM68 °FScattered clouds.9 mph94%30.12 "HgN/A
7:00 AM66 °FScattered clouds.8 mph100%30.12 "HgN/A
6:00 AM61 °FScattered clouds.6 mph100%30.09 "HgN/A
5:00 AM63 °FClear.3 mph94%30.09 "Hg10 mi
1:00 AM66 °FClear.9 mph83%30.09 "Hg10 mi
12:00 AM66 °FPassing clouds.10 mph78%30.09 "HgN/A
11:00 PM
Jan 27
66 °FPassing clouds.9 mph78%30.12 "HgN/A
10:00 PM66 °FPassing clouds.13 mph78%30.09 "HgN/A
Weather by CustomWeather, © 2014

See weather overviewHow to use our weather pages